Location: Dammartin
(48.9032°N, 1.6195°E)
Time: 15:11:19
(UTC+00:00)

Spot 1 - Pass Details

Date: 03 February 2023
Orbit: 575 x 772 km, 98.8° (Epoch: 29 March)

Event Time Altitude Azimuth Distance (km) Brightness Sun altitude
Exits shadow 18:51:58 48° 110° (ESE) 757 4.1 -19.6°
Drops below altitude 10° 18:55:44 10° 177° (S) 1,882 6.5 -20.2°
Sets 18:57:55 0° 183° (S) 2,782 7.5 -20.6°
